Weather History for Williams, AZ

Change the Weather History Date:

Saturday, June 22, 2013

  Actual Average (KFLG) Record (KFLG)
Temperature  
Mean Temperature 64 °F 62 °F  
Max Temperature 80 °F 80 °F 94 °F (1954)
Min Temperature 48 °F 44 °F 31 °F (1947)
Degree Days  
Heating Degree Days 1 4  
Month to date heating degree days 147  
Since 1 July heating degree days 6920  
Cooling Degree Days 0 1  
Month to date cooling degree days 5  
Year to date cooling degree days 5  
Growing Degree Days 14 (Base 50)    
Moisture  
Dew Point 20 °F    
Average Humidity 17    
Maximum Humidity 32    
Minimum Humidity 9    
Precipitation  
Precipitation 0.00 in 0.01 in 1.27 in (1922)
Month to date precipitation 0.22  
Year to date precipitation 8.33  
Snow  
Snow 0.00 in 0.00 in 0.00 in (2002)
Month to date snowfall 0.1  
Since 1 July snowfall 101.8  
Snow Depth -    
Sea Level Pressure  
Sea Level Pressure 30.19 in    
Wind  
Wind Speed 10 mph (South)    
Max Wind Speed 21 mph    
Max Gust Speed 26 mph    
Visibility 10 miles    
Events      
T = Trace of Precipitation, MM = Missing Value Source: NWS Daily Summary

Daily Weather History Graph

Daily Weather History Graph

Search for Another Location

Airport:

Trip Planner

Search our weather history database for the weather conditions in past years. The results will help you decide how hot, cold, wet, or windy it might be!

Date:

Astronomy

Jun. 22, 2013 Rise Set
Actual Time 5:14 AM MST 7:47 PM MST
Civil Twilight 4:44 AM MST 8:17 PM MST
Nautical Twilight 4:07 AM MST 8:54 PM MST
Astronomical Twilight 3:26 AM MST 9:35 PM MST
Moon 7:07 PM MST (6/22) 4:28 AM MST (6/22)
Length of Visible Light 15h 32m
Length of Day
14h 32m
Waxing Gibbous, 99% of the Moon is Illuminated
Jun 22
Waxing Gibbous
Jun 23
Full
Jun 29
Last Quarter
Jul 8
New
Jul 15
First Quarter

Hourly Weather History & Observations

Time (MST) Temp. Dew Point Humidity Pressure Visibility Wind Dir Wind Speed Gust Speed Precip Events Conditions
12:15 AM 62.6 °F 19.4 °F 19% 30.18 in 10.0 mi South 10.4 mph - N/A   Clear
12:35 AM 64.4 °F 19.4 °F 18% 30.18 in 10.0 mi South 11.5 mph - N/A   Unknown
12:55 AM 62.6 °F 19.4 °F 19% 30.17 in 10.0 mi South 11.5 mph - N/A   Clear
1:15 AM 62.6 °F 19.4 °F 19% 30.17 in 10.0 mi South 10.4 mph - N/A   Clear
1:35 AM 62.6 °F 19.4 °F 19% 30.17 in 10.0 mi South 9.2 mph - N/A   Clear
1:55 AM 62.6 °F 19.4 °F 19% 30.16 in 10.0 mi South 8.1 mph - N/A   Clear
2:15 AM 62.6 °F 19.4 °F 19% 30.16 in 10.0 mi South 9.2 mph 16.1 mph N/A   Clear
2:35 AM 59.0 °F 19.4 °F 22% 30.17 in 10.0 mi SSE 5.8 mph - N/A   Clear
2:55 AM 59.0 °F 19.4 °F 22% 30.16 in 10.0 mi SSE 8.1 mph - N/A   Clear
3:15 AM 57.2 °F 19.4 °F 23% 30.16 in 10.0 mi SSE 4.6 mph - N/A   Clear
3:35 AM 57.2 °F 19.4 °F 23% 30.16 in 10.0 mi Calm Calm - N/A   Clear
3:55 AM 57.2 °F 19.4 °F 23% 30.16 in 10.0 mi South 4.6 mph - N/A   Clear
4:15 AM 55.4 °F 19.4 °F 25% 30.16 in 10.0 mi Calm Calm - N/A   Clear
4:35 AM 53.6 °F 19.4 °F 26% 30.17 in 10.0 mi SSE 6.9 mph - N/A   Clear
4:55 AM 50.0 °F 17.6 °F 28% 30.17 in 10.0 mi South 6.9 mph - N/A   Clear
5:15 AM 50.0 °F 19.4 °F 30% 30.17 in 10.0 mi SE 4.6 mph - N/A   Clear
5:35 AM 50.0 °F 17.6 °F 28% 30.18 in 10.0 mi East 4.6 mph - N/A   Clear
5:55 AM 48.2 °F 19.4 °F 32% 30.18 in 10.0 mi East 3.5 mph - N/A   Clear
6:15 AM 51.8 °F 19.4 °F 28% 30.19 in 10.0 mi SE 3.5 mph - N/A   Clear
6:35 AM 55.4 °F 23.0 °F 29% 30.20 in 10.0 mi SSE 3.5 mph - N/A   Clear
6:55 AM 57.2 °F 23.0 °F 27% 30.20 in 10.0 mi SE 5.8 mph - N/A   Clear
7:15 AM 62.6 °F 24.8 °F 24% 30.20 in 10.0 mi SE 4.6 mph - N/A   Clear
7:35 AM 66.2 °F 24.8 °F 21% 30.21 in 10.0 mi South 8.1 mph - N/A   Clear
7:55 AM 68.0 °F 24.8 °F 20% 30.21 in 10.0 mi South 9.2 mph 17.3 mph N/A   Clear
8:15 AM 68.0 °F 24.8 °F 20% 30.21 in 10.0 mi SW 13.8 mph 19.6 mph N/A   Clear
8:35 AM 68.0 °F 23.0 °F 18% 30.22 in 10.0 mi SSW 10.4 mph 18.4 mph N/A   Clear
8:55 AM 69.8 °F 23.0 °F 17% 30.22 in 10.0 mi South 12.7 mph - N/A   Clear
9:15 AM 71.6 °F 23.0 °F 16% 30.22 in 10.0 mi South 12.7 mph - N/A   Clear
9:35 AM 71.6 °F 23.0 °F 16% 30.22 in 10.0 mi South 12.7 mph 24.2 mph N/A   Clear
9:55 AM 73.4 °F 23.0 °F 15% 30.22 in 10.0 mi SSW 10.4 mph 24.2 mph N/A   Clear
10:15 AM 73.4 °F 23.0 °F 15% 30.22 in 10.0 mi South 17.3 mph 23.0 mph N/A   Clear
10:35 AM 73.4 °F 21.2 °F 14% 30.23 in 10.0 mi South 16.1 mph 23.0 mph N/A   Clear
10:55 AM 73.4 °F 19.4 °F 13% 30.24 in 10.0 mi SSW 16.1 mph 21.9 mph N/A   Clear
11:15 AM 73.4 °F 19.4 °F 13% 30.23 in 10.0 mi South 13.8 mph 24.2 mph N/A   Clear
11:35 AM 75.2 °F 19.4 °F 12% 30.23 in 10.0 mi SSW 15.0 mph 23.0 mph N/A   Clear
11:55 AM 75.2 °F 19.4 °F 12% 30.23 in 10.0 mi South 13.8 mph 21.9 mph N/A   Clear
12:15 PM 75.2 °F 21.2 °F 13% 30.23 in 10.0 mi SSW 12.7 mph 19.6 mph N/A   Clear
12:35 PM 77.0 °F 23.0 °F 13% 30.22 in 10.0 mi SSW 15.0 mph 26.5 mph N/A   Clear
12:55 PM 77.0 °F 23.0 °F 13% 30.22 in 10.0 mi SW 17.3 mph 25.3 mph N/A   Clear
1:15 PM 78.8 °F 23.0 °F 13% 30.21 in 10.0 mi South 20.7 mph 26.5 mph N/A   Clear
1:35 PM 78.8 °F 23.0 °F 13% 30.20 in 10.0 mi South 18.4 mph 25.3 mph N/A   Clear
1:55 PM 77.0 °F 24.8 °F 14% 30.20 in 10.0 mi South 13.8 mph 19.6 mph N/A   Clear
2:15 PM 78.8 °F 24.8 °F 14% 30.19 in 10.0 mi South 16.1 mph 25.3 mph N/A   Clear
2:35 PM 80.6 °F 23.0 °F 12% 30.19 in 10.0 mi South 17.3 mph 24.2 mph N/A   Clear
2:55 PM 80.6 °F 21.2 °F 11% 30.18 in 10.0 mi West 13.8 mph 24.2 mph N/A   Clear
3:15 PM 80.6 °F 21.2 °F 11% 30.18 in 10.0 mi South 13.8 mph 21.9 mph N/A   Clear
3:35 PM 80.6 °F 21.2 °F 11% 30.17 in 10.0 mi SSW 16.1 mph 21.9 mph N/A   Clear
3:55 PM 80.6 °F 19.4 °F 10% 30.17 in 10.0 mi SW 16.1 mph 23.0 mph N/A   Clear
4:15 PM 80.6 °F 17.6 °F 10% 30.16 in 10.0 mi WSW 16.1 mph 25.3 mph N/A   Clear
4:35 PM 80.6 °F 15.8 °F 9% 30.16 in 10.0 mi SW 18.4 mph 26.5 mph N/A   Clear
4:55 PM 78.8 °F 17.6 °F 10% 30.15 in 10.0 mi SW 13.8 mph 19.6 mph N/A   Clear
5:15 PM 78.8 °F 17.6 °F 10% 30.15 in 10.0 mi South 12.7 mph 25.3 mph N/A   Clear
5:35 PM 77.0 °F 17.6 °F 11% 30.15 in 10.0 mi SSW 12.7 mph - N/A   Clear
5:55 PM 77.0 °F 15.8 °F 10% 30.15 in 10.0 mi SW 11.5 mph 20.7 mph N/A   Clear
6:15 PM 75.2 °F 15.8 °F 11% 30.15 in 10.0 mi SSW 11.5 mph 20.7 mph N/A   Clear
6:35 PM 75.2 °F 15.8 °F 11% 30.16 in 10.0 mi SSW 11.5 mph - N/A   Clear
6:55 PM 75.2 °F 15.8 °F 11% 30.16 in 10.0 mi SSW 15.0 mph 18.4 mph N/A   Clear
7:15 PM 73.4 °F 15.8 °F 11% 30.17 in 10.0 mi South 11.5 mph 16.1 mph N/A   Clear
7:35 PM 71.6 °F 17.6 °F 13% 30.17 in 10.0 mi SSW 6.9 mph - N/A   Clear
7:55 PM 71.6 °F 17.6 °F 13% 30.17 in 10.0 mi South 10.4 mph - N/A   Clear
8:15 PM 68.0 °F 15.8 °F 13% 30.17 in 10.0 mi SSW 8.1 mph - N/A   Clear
8:35 PM 66.2 °F 15.8 °F 14% 30.18 in 10.0 mi South 8.1 mph - N/A   Clear
8:55 PM 66.2 °F 15.8 °F 14% 30.18 in 10.0 mi South 8.1 mph - N/A   Clear
9:15 PM 64.4 °F 15.8 °F 15% 30.19 in 10.0 mi South 9.2 mph - N/A   Clear
9:35 PM 64.4 °F 15.8 °F 15% 30.20 in 10.0 mi South 9.2 mph - N/A   Clear
9:55 PM 64.4 °F 15.8 °F 15% 30.20 in 10.0 mi SSW 9.2 mph - N/A   Clear
10:15 PM 64.4 °F 15.8 °F 15% 30.20 in 10.0 mi South 8.1 mph - N/A   Clear
10:35 PM 62.6 °F 15.8 °F 16% 30.20 in 10.0 mi South 8.1 mph - N/A   Clear
10:55 PM 62.6 °F 15.8 °F 16% 30.20 in 10.0 mi South 8.1 mph - N/A   Clear
11:15 PM 62.6 °F 17.6 °F 18% 30.19 in 10.0 mi South 6.9 mph - N/A   Clear
11:35 PM 55.4 °F 17.6 °F 23% 30.19 in 10.0 mi South 6.9 mph - N/A   Clear
11:55 PM 55.4 °F 17.6 °F 23% 30.19 in 10.0 mi SSE 5.8 mph - N/A   Clear